Home   Weather   Geldern   Past weeks

Flag for Germany Past Weather in Geldern, North Rhine-Westphalia, Germany — Yesterday and Last 2 Weeks

Now
52 °F

Scattered clouds.


Feels Like: 49 °F
Forecast: 40 / 47 °F
Wind: 8 mph from Southwest

Location: Niederrhein

Current Time: Dec 9, 2016 at 2:47:46 pm

Latest Report: Dec 9, 2016 at 1:50 pm


Visibility: 5 mi

Pressure: 30.36 "Hg

Humidity: 100%

Dew Point: 52 °F

Location of GeldernLocation

Past Weather in Geldern — Graph

°F

Geldern Temperature Yesterday

Maximum temperature yesterday: 48 °F (at 12:50 pm)
Minimum temperature yesterday: 41 °F (at 4:50 am)
Average temperature yesterday: 45 °F

High & Low Weather Summary for the Past Weeks

 TemperatureHumidityPressure
High52 °F (Dec 9, 1:50 pm)100% (Nov 26, 4:50 am)30.60 "Hg (Nov 26, 4:50 am)
Low21 °F (Nov 30, 4:50 am)50% (Nov 25, 2:20 pm)30.09 "Hg (Nov 26, 1:20 pm)
Average37 °F89%30.32 "Hg
* Reported Nov 24 1:50 pm — Dec 9 1:50 pm, Geldern, Weather by CustomWeather, © 2016

Note: Actual official high and low records may vary slightly from our data, if they occured in-between our weather recording intervals... More about our weather records

Advertising

Geldern Weather History for the Previous 24 Hours

Scroll right to see more
 ConditionsComfort  
Time TempWeatherWind HumidityBarometerVisibility
1:50 pm
Fri, Dec 9
52 °FScattered clouds.8 mph100%30.36 "Hg5 mi
1:20 pm50 °FFog.7 mph100%30.33 "Hg2 mi
12:50 pm50 °FFog.7 mph100%30.36 "Hg2 mi
12:20 pm50 °FFog.8 mph100%30.36 "Hg3 mi
11:50 am48 °FFog.8 mph100%30.36 "Hg2 mi
11:20 am48 °FPartly sunny.7 mph100%30.36 "Hg4 mi
10:50 am48 °FPartly sunny.7 mph100%30.36 "Hg4 mi
10:20 am46 °FFog.6 mph100%30.36 "Hg2 mi
9:50 am46 °FFog.7 mph100%30.36 "Hg2 mi
9:20 am46 °FFog.8 mph100%30.36 "Hg2 mi
8:50 am46 °FFog.10 mph100%30.36 "Hg3 mi
8:20 am46 °FPassing clouds.9 mph100%30.36 "Hg6 mi
7:50 am48 °FPassing clouds.8 mph94%30.36 "Hg6 mi
7:20 am48 °FPassing clouds.9 mph94%30.36 "Hg6 mi
6:50 am48 °FPassing clouds.8 mph94%30.36 "Hg6 mi
6:20 am48 °FPassing clouds.10 mph94%30.36 "Hg6 mi
5:50 am48 °FPassing clouds.10 mph94%30.36 "HgN/A
5:20 am48 °FPassing clouds.12 mph87%30.36 "HgN/A
4:50 am48 °FPassing clouds.10 mph87%30.33 "HgN/A
11:50 pm
Thu, Dec 8
46 °FPassing clouds.13 mph87%30.33 "HgN/A
11:20 pm46 °FPassing clouds.12 mph87%30.33 "HgN/A
10:50 pm46 °FPassing clouds.10 mph93%30.33 "HgN/A
10:20 pm46 °FPassing clouds.10 mph87%30.33 "HgN/A
9:50 pm46 °FPassing clouds.9 mph87%30.33 "HgN/A
9:20 pm46 °FPassing clouds.9 mph87%30.33 "HgN/A
8:50 pm46 °FPassing clouds.9 mph82%30.33 "HgN/A
8:20 pm46 °FPassing clouds.9 mph76%30.33 "HgN/A
7:50 pm46 °FPassing clouds.9 mph76%30.33 "HgN/A
7:20 pm46 °FPassing clouds.10 mph71%30.30 "HgN/A
6:50 pm46 °FPassing clouds.8 mph71%30.30 "HgN/A
6:20 pm46 °FClear.8 mph71%30.30 "Hg10 mi
5:50 pm45 °FClear.8 mph71%30.30 "Hg10 mi
5:20 pm46 °FSunny.10 mph66%30.30 "Hg10 mi
4:50 pm46 °FSunny.10 mph66%30.30 "Hg10 mi
4:20 pm46 °FPassing clouds.10 mph66%30.30 "HgN/A
3:50 pm48 °FSunny.12 mph62%30.30 "Hg10 mi
3:20 pm48 °FPassing clouds.8 mph66%30.33 "HgN/A
2:50 pm48 °FSunny.10 mph66%30.33 "Hg10 mi
2:20 pm48 °FPassing clouds.12 mph66%30.33 "HgN/A
Weather by CustomWeather, © 2016

See weather overviewHow to use our weather pages